www.pogodaiklimat.ru

Погода и климат >> Архив погоды >> Россия >> Якутия >> Якутск


АРХИВ ПОГОДЫ в Якутске

Время (UTC), дата Ветер
(напр.,м/с)
 
Видим.   Явления Облачность Т
(С)
Тd
(С)
f
(%)
Тe
(С)
Тes
(С)
Комфортность P
(гПа)
Po
(гПа)
Тmin
(С)
Tmax
(С)
R
(мм)
R24
(мм)
S
(см)
15 11.10 З 1 50 км 10/5 1000 м
[Sc Ac trans Ci fib]
-2.3 -7.7 66 -4 -4 по сезону 1020.7 1007.8
18 11.10 З 2 50 км 10/5 1000 м
[Sc Ac trans]
-2.6 -7.1 71 -6 -6 по сезону 1020.2 1007.3
21 11.10 З 2 20 км слабый снег 10/8 600 м
[Cb cap Ac trans]
-3.1 -6.6 77 -7 -7 по сезону 1019.9 1007.0
00 12.10 З 2 20 км слабый ливневой снег 10/8 630 м
[Cb cap Ac trans]
-2.8 -5.6 81 -7 -7 по сезону 1019.5 1006.6 -3.5 0.2 2
03 12.10 штиль 0 20 км слабый ливневой снег 10/8 660 м
[Cb cap Ac trans]
-1.5 -4.5 80 -3 -2 по сезону 1018.9 1006.1
06 12.10 З 2 20 км слабый ливневой снег 10/8 800 м
[Cb cap Ac trans]
-0.5 -4.9 72 -4 -4 по сезону 1018.5 1005.7
09 12.10 ЮЗ 1 20 км слабый ливневой снег 10/8 800 м
[Cb cap Ac trans]
-1.2 -5.1 75 -3 -3 по сезону 1018.4 1005.6
12 12.10 З 1 50 км {ливн. осадки} 10/6 600 м
[Sc Ac trans]
-2.1 -4.4 84 -4 -4 по сезону 1018.6 1005.8 -0.4 0.2
15 12.10 штиль 0 50 км 10/6 600 м
[Sc Ac trans]
-2.7 -4.9 85 -4 -4 тепло 1018.2 1005.3
18 12.10 СЗ 2 50 км 10/8 720 м
[Sc Ac trans]
-2.9 -5.3 83 -7 -7 по сезону 1018.3 1005.4
21 12.10 штиль 0 20 км слабый снег 10/8 600 м
[Sc Ac trans]
-3.5 -5.4 87 -5 -5 по сезону 1017.7 1004.8
00 13.10 З 1 20 км слабый снег 10/4 1000 м
[Sc Ac trans Ci fib]
-2.9 -5.3 83 -5 -5 по сезону 1017.8 1004.9 -4.1 0.0 2
03 13.10 Ю 2 20 км слабый ливневой снег 10/5 600 м
[Cb cap Ac trans Ci fib]
-0.4 -4.6 73 -4 -3 по сезону 1017.1 1004.4
06 13.10 ЮЗ 2 20 км слабый ливневой снег 10/10 600 м
[Cb cap]
0.0 -4.1 74 -3 -3 по сезону 1017.0 1004.3
09 13.10 штиль 0 20 км слабый ливневой снег 10/10 960 м
[Cb cap]
-1.2 -2.5 91 -2 -2 тепло 1017.6 1004.8
12 13.10 С 1 20 км слабый ливневой снег 10/8 570 м
[Cb cap Ac trans]
-1.9 -3.5 89 -4 -4 тепло 1018.0 1005.2 +0.2 0.4
15 13.10 СЗ 1 20 км слабый ливневой снег 10/8 500 м
[Cb cap Ac trans]
-2.7 -4.5 87 -5 -5 по сезону 1018.3 1005.4
18 13.10 С 1 20 км слабый ливневой снег 10/8 750 м
[Cb cap Ac trans]
-4.2 -6.0 87 -7 -7 по сезону 1018.8 1005.9
21 13.10 С 1 50 км {ливн. осадки} 10/8 1080 м
[Cb cap Ac trans]
-4.7 -6.8 85 -7 -7 по сезону 1019.1 1006.1
00 14.10 СВ 1 50 км {ливн. осадки} 10/8 1080 м
[Cb cap Ac trans]
-4.2 -7.2 80 -6 -6 по сезону 1019.6 1006.6 -4.8 0.3 2
03 14.10 штиль 0 50 км 10/8 1080 м
[Sc Ac trans]
-2.7 -8.7 63 -3 -3 тепло 1019.7 1006.8
06 14.10 СВ 1 50 км 10/6 1020 м
[Sc Ac trans]
-1.9 -9.4 56 -3 -3 по сезону 1019.9 1007.1
09 14.10 С 1 50 км 10/4 1000 м
[Sc Ac trans Ci fib]
-4.3 -10.1 64 -6 -6 по сезону 1020.6 1007.6
12 14.10 штиль 0 20 км 10/0
[Ac trans Ci fib]
-5.7 -8.8 79 -7 -7 по сезону 1020.9 1007.9 -1.5
15 14.10 штиль 0 20 км 10/0
[Ac trans Ci fib]
-6.0 -8.5 82 -7 -7 по сезону 1020.7 1007.7
18 14.10 штиль 0 20 км 10/0
[Ac trans Ci fib]
-6.5 -8.7 84 -7 -7 по сезону 1020.6 1007.5
21 14.10 СЗ 1 50 км 10/0
[Ac trans Ci fib]
-8.9 -10.4 89 -11 -11 по сезону 1020.7 1007.5
00 15.10 штиль 0 50 км 10/3 1000 м
[Sc Ac trans Ci fib]
-6.6 -8.6 86 -7 -7 по сезону 1021.1 1008.0 -9.1 1
03 15.10 СВ 1 20 км слабый ливневой снег 10/8 600 м
[Cb cap Ac trans]
-2.9 -6.4 77 -5 -5 по сезону 1020.8 1007.9
06 15.10 штиль 0 50 км {ливн. осадки} 10/5 600 м
[Cb cap Ac trans Ci fib]
-1.2 -6.7 66 -2 -2 по сезону 1021.1 1008.3
09 15.10 С 1 50 км 10/5 600 м
[Cb cap Ac trans Ci fib]
-3.5 -7.5 74 -6 -6 по сезону 1022.2 1009.3
12 15.10 С 1 50 км 10/4 1000 м
[Sc Ac trans Ci fib]
-5.9 -9.1 78 -8 -8 по сезону 1023.1 1010.0 -1.0 0.0
15 15.10 З 1 20 км слабый снег 10/8 600 м
[Cb cap Ac trans]
-5.7 -8.7 79 -8 -8 по сезону 1023.8 1010.7
18 15.10 СЗ 1 50 км {ливн. осадки, снег} 10/8 600 м
[Cb cap Ac trans]
-5.7 -8.9 78 -8 -8 по сезону 1024.0 1010.9
21 15.10 З 3 50 км 6/3 1000 м
[Sc Ac trans Ci fib]
-9.9 -12.4 82 -16 -16 прохладно 1025.2 1011.9
00 16.10 СЗ 2 20 км слабый снег 10/8 600 м
[Sc Ac trans Ci fib]
-10.0 -12.6 81 -14 -14 по сезону 1026.5 1013.2 -10.8 0.3 1
03 16.10 СЗ 3 50 км в посл. час снег 10/8 630 м
[Cb cap Ac trans Ci fib]
-6.9 -10.8 74 -12 -12 по сезону 1026.1 1012.9
06 16.10 З 5 20 км слабый ливневой снег 10/8 700 м
[Cb cap Ac trans Ci fib]
-6.1 -11.4 66 -13 -13 холодно 1025.9 1012.8
09 16.10 СЗ 2 20 км слабый ливневой снег 10/8 660 м
[Cb cap Ac trans Ci fib]
-8.3 -12.7 71 -13 -13 прохладно 1027.0 1013.8
12 16.10 СЗ 4 20 км слабый ливневой снег 10/8 720 м
[Cb cap Ac trans]
-8.9 -13.2 71 -16 -16 прохладно 1027.0 1013.7 -5.5 0.0
15 16.10 СЗ 2 20 км слабый ливневой снег 10/8 630 м
[Cb cap Ac trans]
-10.3 -14.2 73 -15 -15 по сезону 1027.1 1013.7
18 16.10 СЗ 2 10 км слабый ливневой снег 10/10 660 м
[Cb cap]
-10.9 -14.7 74 -15 -15 по сезону 1027.4 1014.0
21 16.10 СЗ 3 20 км слабый ливневой снег 10/8 600 м
[Cb cap Ac trans Ci fib]
-11.5 -15.2 74 -17 -17 прохладно 1027.7 1014.3
00 17.10 З 3 20 км слабый ливневой снег 10/8 540 м
[Cb cap Ac trans Ci fib]
-11.9 -15.5 75 -18 -18 прохладно 1028.1 1014.7 -12.0 0.0 1
03 17.10 З 2 20 км слабый ливневой снег 10/8 700 м
[Cb cap Ac trans Ci fib]
-10.5 -15.3 68 -15 -15 прохладно 1028.1 1014.7
06 17.10 З 2 50 км {ливн. осадки} 3/0
[Ac trans Ci fib]
-8.7 -15.6 57 -13 -12 прохладно 1028.0 1014.7
09 17.10 С 1 50 км 3/0
[Ci fib]
-11.1 -15.4 70 -13 -13 по сезону 1028.0 1014.6
12 17.10 штиль 0 50 км 4/0
[Ci fib]
-16.1 -18.4 82 -16 -16 прохладно 1028.2 1014.5 -8.4 0.0
15 17.10 штиль 0 20 км слабый ливневой снег 10/8 700 м
[Cb cap Ci fib]
-15.4 -17.7 82 -15 -15 по сезону 1027.9 1014.3
18 17.10 В 1 20 км слабый ливневой снег 10/10 500 м
[Cb cap]
-12.5 -14.5 85 -15 -15 по сезону 1027.0 1013.6
21 17.10 С 1 20 км слабый ливневой снег 10/10 500 м
[Cb cap]
-12.9 -15.1 84 -15 -15 по сезону 1026.4 1012.9
00 18.10 С 1 20 км слабый ливневой снег 10/6 600 м
[Cb cap Ac trans Ci fib]
-11.9 -14.2 83 -14 -14 по сезону 1025.9 1012.5 -16.7 0.3 3
03 18.10 В 3 20 км ледяные иглы {ливн. осадки, снег} 10/3 600 м
[Cb cap Ac trans Ci fib]
-8.3 -12.6 71 -14 -13 по сезону 1024.5 1011.3
06 18.10 В 3 50 км {ливн. осадки, снег} 8/1 1000 м
[Sc Ac trans Ci fib]
-7.0 -12.9 63 -12 -12 прохладно 1023.2 1010.1
09 18.10 В 3 20 км 10/0
[Ac trans Ci fib]
-8.9 -13.8 68 -15 -15 прохладно 1023.3 1010.1

 

Местоположение метеостанции Якутск (Якутия, Россия): широта 62.00 долгота 129.60 высота над уровнем моря 101 м.

В архиве по умолчанию представлена погода в Якутске за последнюю неделю. Архивные данные за месяц целиком и за предыдущие месяцы, начиная с января 2011 года, Вы можете получить, выбрав интересующий диапазон дат из раскрывающегося списка и нажав кнопку "Ввод!".

Внимание! Время в таблицах - всемирное. Для получения местного времени необходимо прибавить поправку, которая в Якутске равна 9 ч.

Смотрите также архив погоды в соседних городах и на ближайших метеорологических станциях:

Погода в Покровске (Якутия, Россия) (64 км)
Погода в Намцах (Якутия, Россия) (80 км)
Погода в Бердигестяхе (Якутия, Россия) (138 км)
Погода в Чурапче (Якутия, Россия) (157 км)
Погода в Батамае (Якутия, Россия) (169 км)
Погода в Тегюльте (Якутия, Россия) (172 км)
Погода в Амге (Якутия, Россия) (173 км)
Погода в Верхоянском Перевозе (Якутия, Россия) (191 км)
Погода в Ытык-Кюёле (Якутия, Россия) (207 км)
Погода в Сеген-Кюели (Якутия, Россия) (225 км)

Пояснения к столбцам:

Ветер - указаны скорость ветра в м/с - средняя за 10 мин, порывы в срок и между сроками (в фигурных скобках) и направление, откуда дует ветер: С - северный, СВ - северо-восточный, В - восточный, ЮВ - юго-восточный, Ю - южный, ЮЗ - юго-западный, З - западный, СЗ - северо-западный.
Видимость - горизонтальная дальность видимости в метрах или километрах. При видимости от 1 до 10 км при отсутствии осадков обычно наблюдается дымка, при ухудшении видимости до 1 км и менее - туман. В сухую погоду видимость может ухудшаться дымом, пылью или мглою.
Явления - указаны атмосферные явления, наблюдавшиеся в срок или в последний час перед сроком; фигурными скобками обозначены явления, наблюдавшиеся между сроками (за 1-3 часа до срока); квадратными скобками обозначены град или гололедные отложения с указанием их диаметра в мм.
Облачность - указаны через наклонную черту общая и нижняя облачность в баллах и высота нижней границы облаков в метрах; квадратными скобками обозначены формы облаков: Ci - перистые, Cs - перисто-слоистые, Cc - перисто-кучевые, Ac - высококучевые, As - высокослоистые, Sc - слоисто-кучевые, Ns - слоисто-дождевые, Cu - кучевые, Cb - кучево-дождевые. Подробнее классификацию облаков см. в Атласе облаков (PDF).
T - Температура воздуха - температура, измеренная на высоте 2 м над землей.
Td - Температура точки росы - температура, при понижении до которой содержащийся в воздухе водяной пар достигнет насыщения.
f - Относительная влажность воздуха - влажноcть воздуха, измеренная на высоте 2 м над землей.
Te - Эффективная температура - температура, которую ощущает одетый по сезону человек в тени. Характеристика душности погоды. При расчете учитывается влияние влажности воздуха и скорости ветра на теплоощущения человека.
Tes - Эффективная температура на солнце - температура, которую ощущает человек, с поправкой на солнечный нагрев. Характеристика знойности погоды. Зависит от высоты солнца над горизонтом, облачности и скорости ветра. Ночью, в пасмурную погоду, а также при ветре 12 м/с и более поправка равна нулю.
P - Атмосферное давление - приведенное к уровню моря атмосферное давление.
Po - Атмосферное давление - измеренное на уровне метеостанции атмосферное давление.
Tmin - Минимальная температура - минимум температуры воздуха на высоте 2 м над землей.
Tmax - Максимальная температура - максимум температуры воздуха на высоте 2 м над землей.
R - Количество осадков - Количество выпавших осадков за период времени, мм. При наведении курсора мыши на число - период времени, за который выпало указанное количество осадков.
R24 - Количество осадков - Количество выпавших осадков за 24 часа, мм.
S - Снежный покров - Высота снежного покрова, см. При наведении курсора мыши на число - состояние снежного покрова и степень покрытия местности в баллах.